Location: Newark
(45.2633°N, 19.8417°E)
Time: 18:53:39
(UTC+00:00)

X-37B - Visible Passes

Search period start: 23 June 2021 00:00
Search period end: 03 July 2021 00:00
Orbit: 386 x 389 km, 45.0° (Epoch: 10 June)

Date Brightness Start Highest point End Pass type
(mag) Time Alt. Az. Time Alt. Az. Time Alt. Az.
23 Jun 2.1 00:49:38 22° SSE 00:49:38 22° SSE 00:51:04 10° SE visible
23 Jun 0.7 20:33:38 10° WSW 20:36:43 49° SSE 20:37:46 33° ESE visible
23 Jun 3.5 22:10:06 10° W 22:10:09 10° W 22:10:09 10° W visible
24 Jun 1.3 19:35:33 10° SW 19:38:27 33° SSE 19:41:22 10° E visible
24 Jun 0.4 21:11:44 10° W 21:14:55 83° S 21:15:11 72° ESE visible
25 Jun 0.5 20:13:24 10° WSW 20:16:33 68° S 20:19:36 11° E visible
25 Jun 1.9 21:50:00 10° W 21:51:53 32° W 21:51:53 32° W visible
26 Jun 0.8 19:15:10 10° WSW 19:18:15 49° SSE 19:21:21 10° E visible
26 Jun 0.5 20:51:38 10° W 20:54:49 88° SSW 20:56:01 35° E visible
26 Jun 3.5 22:28:17 10° W 22:28:18 10° W 22:28:18 10° W visible
27 Jun 0.5 19:53:15 10° W 19:56:27 83° S 19:59:38 10° E visible
27 Jun 1.2 21:29:54 10° W 21:32:17 46° W 21:32:17 46° W visible
28 Jun 0.5 20:31:31 10° W 20:34:43 84° S 20:36:14 28° E visible
28 Jun 3.4 22:08:15 10° W 22:08:30 11° W 22:08:30 11° W visible
29 Jun 0.5 19:33:10 10° W 19:36:21 89° S 19:39:33 10° E visible
29 Jun 1.1 21:09:49 10° W 21:12:24 44° SW 21:12:24 44° SW visible
30 Jun 0.5 20:11:26 10° W 20:14:36 70° SSW 20:16:18 25° ESE visible
30 Jun 3.4 21:48:23 10° W 21:48:33 11° W 21:48:33 11° W visible
01 Jul 0.6 19:13:04 10° W 19:16:15 84° S 19:19:26 10° E visible
01 Jul 1.5 20:49:47 10° W 20:52:27 33° SW 20:52:27 33° SW visible
02 Jul 0.9 19:51:21 10° W 19:54:27 51° SSW 19:56:22 20° SE visible
